Date String (YYYY-MM-DD hh:mm:ss) UTC,Instrument flags,absolute air pressure of the measurement (hPa),sample flow rate (lpm),inlet stack bypass flow (lpm),air temperature of the measurement (°C),ambient temperature measured by the external sensor (°C),aerosol sample conditioner tube jacket temperature (°C),OPC LED temperature (°C),internal box temperature (°C),relative humidity of the measurement (%),span deviation,mass concentration of particles derived from Lorenz-Mie calculation of OPC scattering (μg/m³),mass concentration of particles derived from Lorenz-Mie calculation of OPC scattering (μg/m³),mass concentration of particles derived from Lorenz-Mie calculation of OPC scattering (μg/m³)
DateTimeUTC,F1_M11,P_M11,Q1_M11,Q2_M11,T1_M11,T2_M11,T3_M11,T4_M11,T5_M11,U1_M11,ZSPAN_M11,X0_M11,X2_M11,X1_M11
2024-01-11 09:00:00,SystemResetWarning,0808.3,5.00,000.00,018.7,017.5,000.0,027.2,020.0,9.8,0000.0,0003.39,0001.84,0001.62
2024-01-11 09:01:00,SystemResetWarning,0808.3,5.00,000.00,018.7,017.5,000.0,027.2,020.0,9.9,0000.0,0003.17,0001.83,0001.61
2024-01-11 09:02:00,SystemResetWarning,0808.4,5.00,000.00,018.7,017.5,000.0,027.2,020.0,9.9,0000.0,0003.01,0001.83,0001.60
2024-01-11 09:03:00,SystemResetWarning,0808.4,5.00,000.00,018.7,017.4,000.0,027.2,020.0,9.8,0000.0,0003.02,0001.83,0001.59
2024-01-11 09:04:00,SystemResetWarning,0808.5,5.00,000.00,018.7,017.4,000.0,027.2,020.0,9.8,0000.0,0003.01,0001.81,0001.58
2024-01-11 09:05:00,SystemResetWarning,0808.5,5.00,000.00,018.7,017.4,000.0,027.2,020.0,9.8,0000.0,0003.81,0001.82,0001.56
2024-01-11 09:06:00,SystemResetWarning,0808.5,5.00,000.00,018.7,017.4,000.0,027.2,020.0,9.8,0000.0,0004.23,0001.83,0001.55
2024-01-11 09:07:00,SystemResetWarning,0808.4,4.99,000.00,018.7,017.4,000.0,027.2,020.0,9.8,0000.0,0004.27,0001.83,0001.54
2024-01-11 09:08:00,SystemResetWarning,0808.3,4.99,000.00,018.7,017.4,000.0,027.2,020.0,9.8,0000.0,0004.30,0001.84,0001.54
2024-01-11 09:09:00,SystemResetWarning,0808.3,5.00,000.00,018.7,017.5,000.0,027.2,020.2,9.8,0000.0,0004.16,0001.85,0001.55
2024-01-11 09:10:00,SystemResetWarning,0808.3,5.01,000.00,018.8,018.2,000.0,027.2,020.6,9.8,0000.0,0003.91,0001.86,0001.54
2024-01-11 09:11:00,SystemResetWarning,0808.2,5.00,000.00,018.9,018.8,000.0,027.2,020.8,9.7,0000.0,0003.95,0001.86,0001.53
2024-01-11 09:12:00,SystemResetWarning,0808.3,4.99,000.00,019.0,018.8,000.0,027.2,020.5,9.7,0000.0,0003.94,0001.86,0001.53
2024-01-11 09:13:00,SystemResetWarning,0808.2,5.00,000.00,019.0,018.7,000.0,027.2,020.3,9.7,0000.0,0003.93,0001.85,0001.52
2024-01-11 09:14:00,SystemResetWarning,0808.2,5.01,000.00,018.9,018.6,000.0,027.2,020.2,9.7,0000.0,0003.94,0001.86,0001.52
2024-01-11 09:15:00,SystemResetWarning,0808.2,5.00,000.00,018.9,018.5,000.0,027.2,020.1,9.7,0000.0,0003.93,0001.85,0001.50
2024-01-11 09:16:00,SystemResetWarning,0808.2,5.01,000.00,018.9,018.3,000.0,027.2,020.1,9.7,0000.0,0003.10,0001.81,0001.49
2024-01-11 09:17:00,SystemResetWarning,0808.2,5.00,000.00,018.9,018.2,000.0,027.2,020.0,9.7,0000.0,0002.74,0001.79,0001.47
2024-01-11 09:18:00,SystemResetWarning,0808.2,5.00,000.00,018.8,018.1,000.0,027.1,020.0,9.7,0000.0,0002.69,0001.77,0001.46
2024-01-11 09:19:00,SystemResetWarning,0808.3,5.01,000.00,018.8,018.0,000.0,027.1,020.0,9.8,0000.0,0003.02,0001.76,0001.44
2024-01-11 09:20:00,SystemResetWarning,0808.3,5.01,000.00,018.8,017.9,000.0,027.2,020.0,9.8,0000.0,0002.97,0001.72,0001.41
2024-01-11 09:21:00,SystemResetWarning,0808.4,5.00,000.00,018.8,017.9,000.0,027.2,020.0,9.8,0000.0,0002.71,0001.65,0001.40
2024-01-11 09:22:00,SystemResetWarning,0808.5,5.00,000.00,018.8,017.8,000.0,027.2,020.0,9.9,0000.0,0002.56,0001.61,0001.39
2024-01-11 09:23:00,SystemResetWarning,0808.5,5.00,000.00,018.8,017.8,000.0,027.2,020.0,9.9,0000.0,0002.51,0001.58,0001.36
2024-01-11 09:24:00,SystemResetWarning,0808.5,5.00,000.00,018.7,017.7,000.0,027.2,020.0,9.9,0000.0,0002.53,0001.59,0001.35
2024-01-11 09:25:00,SystemResetWarning,0808.5,5.00,000.00,018.7,017.7,000.0,027.2,020.0,10.0,0000.0,0002.55,0001.58,0001.34
2024-01-11 09:26:00,SystemResetWarning,0808.5,5.00,000.00,018.7,017.6,000.0,027.2,020.0,10.0,0000.0,0002.66,0001.58,0001.35
2024-01-11 09:27:00,SystemResetWarning,0808.5,5.00,000.00,018.7,017.6,000.0,027.2,020.0,10.0,0000.0,0002.70,0001.61,0001.36
2024-01-11 09:28:00,SystemResetWarning,0808.5,5.00,000.00,018.7,017.6,000.0,027.2,020.0,10.0,0000.0,0002.64,0001.59,0001.35
2024-01-11 09:29:00,SystemResetWarning,0808.4,5.01,000.00,018.7,017.6,000.0,027.2,020.0,10.0,0000.0,0002.64,0001.59,0001.33
2024-01-11 09:30:00,SystemResetWarning,0808.4,5.00,000.00,018.7,017.6,000.0,027.2,020.0,9.9,0000.0,0002.36,0001.58,0001.33
2024-01-11 09:31:00,SystemResetWarning,0808.5,5.00,000.00,018.7,017.6,000.0,027.2,020.0,9.9,0000.0,0002.35,0001.60,0001.33
2024-01-11 09:32:00,SystemResetWarning,0808.6,5.00,000.00,018.7,017.6,000.0,027.2,020.0,9.8,0000.0,0002.39,0001.61,0001.33
2024-01-11 09:33:00,SystemResetWarning,0808.6,5.01,000.00,018.7,017.7,000.0,027.2,020.0,9.8,0000.0,0002.40,0001.62,0001.33
2024-01-11 09:34:00,SystemResetWarning,0808.6,5.00,000.00,018.7,017.7,000.0,027.2,020.0,9.7,0000.0,0002.41,0001.62,0001.33
2024-01-11 09:35:00,SystemResetWarning,0808.6,5.00,000.00,018.7,017.7,000.0,027.2,020.0,9.7,0000.0,0002.37,0001.60,0001.32
2024-01-11 09:36:00,SystemResetWarning,0808.6,5.00,000.00,018.7,017.7,000.0,027.2,020.0,9.8,0000.0,0002.28,0001.56,0001.30
2024-01-11 09:37:00,SystemResetWarning,0808.6,5.00,000.00,018.7,017.7,000.0,027.2,020.0,9.8,0000.0,0002.27,0001.58,0001.29
2024-01-11 09:38:00,SystemResetWarning,0808.5,5.00,000.00,018.7,017.7,000.0,027.2,020.0,9.8,0000.0,0002.27,0001.56,0001.27
2024-01-11 09:39:00,SystemResetWarning,0808.5,5.00,000.00,018.7,017.8,000.0,027.2,020.0,9.7,0000.0,0002.28,0001.56,0001.27
2024-01-11 09:40:00,SystemResetWarning,0808.5,5.00,000.00,018.7,017.8,000.0,027.2,020.0,9.8,0000.0,0002.31,0001.59,0001.28
2024-01-11 09:41:00,SystemResetWarning,0808.5,4.99,000.00,018.7,017.8,000.0,027.2,020.0,9.9,0000.0,0002.26,0001.57,0001.28
2024-01-11 09:42:00,SystemResetWarning,0808.5,4.99,000.00,018.7,017.8,000.0,027.2,020.0,9.9,0000.0,0002.11,0001.49,0001.25
2024-01-11 09:43:00,SystemResetWarning,0808.6,5.00,000.00,018.7,017.8,000.0,027.1,020.0,9.9,0000.0,0002.05,0001.46,0001.24
2024-01-11 09:44:00,SystemResetWarning,0808.6,5.00,000.00,018.7,017.8,000.0,027.1,020.0,9.9,0000.0,0002.00,0001.43,0001.22
2024-01-11 09:45:00,SystemResetWarning,0808.6,4.99,000.00,018.7,017.8,000.0,027.1,020.0,10.0,0000.0,0001.96,0001.40,0001.19
2024-01-11 09:46:00,SystemResetWarning,0808.6,5.00,000.00,018.7,017.8,000.0,027.1,020.0,10.0,0000.0,0001.91,0001.38,0001.19
2024-01-11 09:47:00,SystemResetWarning,0808.5,5.00,000.00,018.7,017.8,000.0,027.1,020.0,10.0,0000.0,0001.92,0001.38,0001.18
2024-01-11 09:48:00,SystemResetWarning,0808.5,5.01,000.00,018.7,017.8,000.0,027.1,020.0,10.0,0000.0,0001.93,0001.39,0001.18
2024-01-11 09:49:00,SystemResetWarning,0808.5,5.00,000.00,018.7,017.8,000.0,027.1,020.0,10.0,0000.0,0001.88,0001.38,0001.19
2024-01-11 09:50:00,SystemResetWarning,0808.6,5.01,000.00,018.7,018.0,000.0,027.1,020.4,10.0,0000.0,0001.92,0001.39,0001.18
2024-01-11 09:51:00,SystemResetWarning,0808.6,4.99,000.00,018.9,018.7,000.0,027.2,020.8,10.0,0000.0,0001.85,0001.35,0001.17
2024-01-11 09:52:00,SystemResetWarning,0808.6,4.99,000.00,019.0,019.0,000.0,027.2,020.7,9.9,0000.0,0001.80,0001.33,0001.17
2024-01-11 09:53:00,SystemResetWarning,0808.6,5.00,000.00,019.0,018.9,000.0,027.2,020.5,9.9,0000.0,0001.89,0001.37,0001.18
2024-01-11 09:54:00,SystemResetWarning,0808.6,5.00,000.00,019.0,018.8,000.0,027.2,020.3,10.0,0000.0,0001.90,0001.38,0001.18
2024-01-11 09:55:00,SystemResetWarning,0808.6,5.00,000.00,019.0,018.7,000.0,027.2,020.2,10.0,0000.0,0001.97,0001.41,0001.18
2024-01-11 09:56:00,SystemResetWarning,0808.5,5.01,000.00,018.9,018.6,000.0,027.2,020.2,10.0,0000.0,0002.08,0001.45,0001.19
2024-01-11 09:57:00,SystemResetWarning,0808.4,5.01,000.00,018.9,018.4,000.0,027.2,020.1,10.0,0000.0,0002.21,0001.45,0001.19
2024-01-11 09:58:00,SystemResetWarning,0808.4,5.00,000.00,018.9,018.4,000.0,027.2,020.1,10.0,0000.0,0002.22,0001.45,0001.18
2024-01-11 09:59:00,SystemResetWarning,0808.4,4.99,000.00,018.9,018.3,000.0,027.2,020.1,10.0,0000.0,0002.12,0001.41,0001.17
